Find Starlink 6130

NORAD ID: 57104 Int'l Des: 2023-090 Owner: SPXS Country: US Constellation: starlink operational
LEOCIRCULAR

現在のビュー

3D地球を読み込み中...

About Starlink 6130

Starlink 6130 (NORAD 57104) is a starlink constellation satellite (v1.5) launched Jun 23, 2023 by SPXS of US. It operates in LEO, CIRCULAR orbit with a mass of 305.00 kg.

Starlink 6130について

説明を読み込み中...

次回通過

Passes for default location (London). Set your location on the main map for personalized predictions.

高度履歴

Loading altitude history...

軌道要素

1 57104U 23090D 26170.05553683 .00000528 00000-0 28731-4 0 9992
2 57104 43.0058 69.2141 0001470 266.8372 93.2311 15.27577674165820
Epoch: Jun 19, 2026 • Age: 80 hours

現在のステータス

高度 494.6 km
速度 7.62 km/s
衛星直下点 -41.15°S, 64.44°W
打ち上げ日 Jun 23, 2023
運用期間 2.9 years
タイプ internet

技術仕様

分類 Payload
質量 305.00 kg
乾燥質量 290.00 kg
総質量 305.00 kg
長さ 0.20 m
直径 2.80 m
スパン 9.00 m
形状 Box + pan
製造者 SPXS
バスタイプ Starlink
フェーズステータス In Orbit
所有者/国 SPXS/US

Most Searched